{"data":{"norad_id":48113,"epoch":"2026-09-20T04:33:21.399264Z","epoch_age_seconds":55981,"freshness":"FRESH","line1":"1 48113U 21027X   26263.18983101 -.00000035  00000+0  10626-4 0  9996","line2":"2 48113  53.1635 340.1365 0001157  94.1115 266.0019 15.31699904302308","mean_motion":15.31699904,"eccentricity":0.0001157,"inclination_deg":53.1635,"raan_deg":340.1365,"arg_perigee_deg":94.1115,"mean_anomaly_deg":266.0019,"bstar":1.0626e-5,"rev_number":30230,"period_min":94.013193853409,"perigee_km":469.94786629521,"apogee_km":471.53269649812,"semimajor_km":6848.8772813967,"source":"CELESTRAK","updated_at":"2026-09-20T09:00:38.764188Z"}}